Location: Fort Collins
(40.5850°N, 105.0840°W)
Time: 01:39:36
(UTC-07:00)

Cosmos 2297 Rocket - Visible Passes

Search period start: 23 February 2018 00:00
Search period end: 05 March 2018 00:00
Orbit: 838 x 845 km, 71.0° (Epoch: 22 February)

Date Brightness Start Highest point End Pass type
(mag) Time Alt. Az. Time Alt. Az. Time Alt. Az.
23 Feb 3.0 18:16:56 10° SW 18:22:28 56° WNW 18:28:03 10° NNE visible
24 Feb 2.9 18:01:48 10° SW 18:07:22 59° WNW 18:12:59 10° NNE visible
24 Feb 5.2 19:52:03 10° NW 19:52:39 10° NW 19:53:16 10° NW visible
25 Feb 5.1 19:36:12 10° WNW 19:37:30 11° NW 19:38:47 10° NNW visible
26 Feb 5.0 19:20:37 10° WNW 19:22:20 11° NW 19:24:02 10° NNW visible
27 Feb 5.0 19:05:08 10° WNW 19:07:10 12° NW 19:09:13 10° NNW visible
28 Feb 4.9 18:49:41 10° WNW 18:52:00 12° NW 18:54:21 10° NNW visible
01 Mar 4.9 18:34:17 10° WNW 18:36:51 13° NW 18:39:26 10° NNW visible
02 Mar 4.8 18:18:54 10° WNW 18:21:42 14° NW 18:24:30 10° NNW visible
